Weather History for YBHM - March, 2013

Change the Weather History Date:

Monday, March 4, 2013

  Actual Average Record
Temperature  
Mean Temperature 80 °F -  
Max Temperature 84 °F - - ()
Min Temperature 75 °F - - ()
Cooling Degree Days 14    
Growing Degree Days 30 (Base 50)    
Moisture  
Dew Point 79 °F    
Average Humidity 96    
Maximum Humidity 100    
Minimum Humidity 84    
Precipitation  
Precipitation 1.54 in - - ()
Sea Level Pressure  
Sea Level Pressure 29.62 in    
Wind  
Wind Speed 17 mph ()    
Max Wind Speed 31 mph    
Max Gust Speed 30 mph    
T = Trace of Precipitation, MM = Missing Value Source: Averaged Metar Reports

Daily Weather History Graph

Daily Weather History Graph

Search for Another Location

Airport or City:

Trip Planner

Search our weather history database for the weather conditions in past years. The results will help you decide how hot, cold, wet, or windy it might be!

Date:

Astronomy

Mar. 04, 2013 Rise Set
Actual Time 6:02 AM AEST 6:28 PM AEST
Civil Twilight 5:40 AM AEST 6:51 PM AEST
Nautical Twilight 5:14 AM AEST 7:17 PM AEST
Astronomical Twilight 4:48 AM AEST 7:43 PM AEST
Moon 11:15 PM AEST 11:49 AM AEST
Length of Visible Light 13h 10m
Length of Day
12h 26m
Waning Gibbous, 59% of the Moon is Illuminated
Mar 4
Waning Gibbous
Mar 5
Last Quarter
Mar 12
New
Mar 20
First Quarter
Mar 27
Full

Hourly Weather History & Observations

Time (AEST) Temp. Heat Index Dew Point Humidity Pressure Visibility Wind Dir Wind Speed Gust Speed Precip Events Conditions
12:00 AM 76 °F - 76 °F 98% 29.59 in - SSE 23.0 mph - -  
12:00 AM 75.2 °F - 75.2 °F 100% 29.59 in - SSE 23.0 mph - N/A   Unknown
12:30 AM 77.0 °F - 75.2 °F 94% 29.59 in - SE 18.4 mph - N/A   Unknown
1:00 AM 78.8 °F - 78.8 °F 100% 29.59 in - SE 21.9 mph - N/A   Unknown
1:30 AM 78.8 °F - 78.8 °F 100% 29.59 in - SE 15.0 mph - N/A   Unknown
1:42 AM 78.8 °F - 78.8 °F 100% 29.59 in - SE 17.3 mph 29.9 mph N/A   Unknown
2:00 AM 77.0 °F - 77.0 °F 100% 29.56 in - ESE 26.5 mph - N/A   Unknown
2:30 AM 77.0 °F - 77.0 °F 100% 29.56 in - SE 18.4 mph - N/A   Unknown
3:00 AM 77 °F - 76 °F 97% 29.57 in - SE 15.0 mph - -  
3:00 AM 77.0 °F - 77.0 °F 100% 29.56 in - SE 15.0 mph - N/A   Unknown
3:30 AM 77.0 °F - 77.0 °F 100% 29.56 in - SSE 11.5 mph - N/A   Unknown
4:00 AM 77.0 °F - 77.0 °F 100% 29.56 in - SE 13.8 mph - N/A   Unknown
5:00 AM 75.2 °F - 75.2 °F 100% 29.56 in - SSW 16.1 mph - N/A   Unknown
5:30 AM 77.0 °F - 77.0 °F 100% 29.59 in - WSW 13.8 mph - N/A   Unknown
6:00 AM 77 °F - - % 29.59 in - West 12.7 mph - -  
6:00 AM 77.0 °F - 77.0 °F 100% 29.59 in - West 12.7 mph - N/A   Unknown
6:30 AM 77.0 °F - 77.0 °F 100% 29.59 in - NW 11.5 mph - N/A   Unknown
7:00 AM 77.0 °F - 77.0 °F 100% 29.62 in - NW 8.1 mph - N/A   Unknown
7:30 AM 78.8 °F - 77.0 °F 94% 29.62 in - NNW 4.6 mph - N/A   Unknown
8:00 AM 78.8 °F - 78.8 °F 100% 29.62 in - NNW 5.8 mph - N/A   Unknown
8:30 AM 82.4 °F 94.0 °F 80.6 °F 94% 29.65 in - NE 3.5 mph - N/A   Unknown
9:00 AM 82 °F - 79 °F 88% 29.67 in - ESE 9.2 mph - -  
9:00 AM 82.4 °F 92.4 °F 78.8 °F 89% 29.65 in - ESE 9.2 mph - N/A   Unknown
9:30 AM 82.4 °F 90.9 °F 77.0 °F 84% 29.68 in - East 8.1 mph - N/A   Unknown
10:00 AM 84.2 °F 98.3 °F 80.6 °F 89% 29.68 in - East 8.1 mph - N/A   Unknown
10:30 AM 82.4 °F 92.4 °F 78.8 °F 89% 29.65 in - East 9.2 mph - N/A   Unknown
11:00 AM 84.2 °F 100.6 °F 82.4 °F 94% 29.65 in - ESE 11.5 mph - N/A   Unknown
11:30 AM 84.2 °F 100.6 °F 82.4 °F 94% 29.65 in - ESE 16.1 mph - N/A   Unknown
12:00 PM 83 °F - 81 °F 91% 29.64 in - ESE 16.1 mph - -  
12:00 PM 84.2 °F 98.3 °F 80.6 °F 89% 29.65 in - ESE 16.1 mph - N/A   Unknown
12:30 PM 82.4 °F 94.0 °F 80.6 °F 94% 29.62 in - ESE 19.6 mph - N/A   Unknown
1:00 PM 82.4 °F 92.4 °F 78.8 °F 89% 29.62 in - East 20.7 mph - N/A   Unknown
1:30 PM 82.4 °F 94.0 °F 80.6 °F 94% 29.62 in - East 18.4 mph - N/A   Unknown
2:00 PM 82.4 °F 92.4 °F 78.8 °F 89% 29.59 in - East 23.0 mph - N/A   Unknown
2:30 PM 82.4 °F 92.4 °F 78.8 °F 89% 29.59 in - ESE 21.9 mph - N/A   Unknown
3:00 PM 82 °F - 79 °F 88% 29.60 in - ESE 23.0 mph - -  
3:00 PM 82.4 °F 92.4 °F 78.8 °F 89% 29.59 in - ESE 23.0 mph - N/A   Unknown
3:30 PM 82.4 °F 94.0 °F 80.6 °F 94% 29.59 in - ESE 21.9 mph - N/A   Unknown
4:00 PM 78.8 °F - 78.8 °F 100% 29.59 in - East 21.9 mph - N/A   Unknown
4:30 PM 78.8 °F - 78.8 °F 100% 29.59 in - East 23.0 mph - N/A   Unknown
5:00 PM 78.8 °F - 78.8 °F 100% 29.62 in - ENE 18.4 mph - N/A   Unknown
5:26 PM 78.8 °F - 78.8 °F 100% 29.62 in - East 17.3 mph 28.8 mph N/A   Unknown
5:30 PM - - - N/A% 29.62 in - East 31.1 mph - N/A   Unknown
6:00 PM 78 °F - - % 29.62 in - East 26.5 mph - -  
6:00 PM 78.8 °F - 78.8 °F 100% 29.62 in - East 26.5 mph - N/A   Unknown
6:30 PM 78.8 °F - 78.8 °F 100% 29.65 in - East 20.7 mph - N/A   Unknown
7:00 PM - - - N/A% 29.65 in - East 26.5 mph - N/A   Unknown
8:00 PM 80.6 °F 88.1 °F 78.8 °F 94% 29.68 in - East 25.3 mph - N/A   Unknown
8:30 PM 78.8 °F - 78.8 °F 100% 29.68 in - ESE 26.5 mph - N/A   Unknown
9:00 PM 79 °F - 79 °F 100% 29.68 in - ESE 24.2 mph - -  
9:00 PM 78.8 °F - 78.8 °F 100% 29.68 in - ESE 24.2 mph - N/A   Unknown
9:30 PM 80.6 °F 88.1 °F 78.8 °F 94% 29.68 in - ESE 21.9 mph - N/A   Unknown
10:00 PM 80.6 °F 88.1 °F 78.8 °F 94% 29.68 in - ESE 21.9 mph - N/A   Unknown
10:30 PM 80.6 °F 88.1 °F 78.8 °F 94% 29.68 in - ESE 24.2 mph - N/A   Unknown
11:00 PM 80.6 °F 88.1 °F 78.8 °F 94% 29.68 in - ESE 25.3 mph - N/A   Unknown
11:30 PM 80.6 °F 88.1 °F 78.8 °F 94% 29.68 in - East 24.2 mph - N/A   Unknown